FENGYUN 1C DEB, 35147

Orbit data source: Space-Track

FENGYUN 1C DEB, 35147 is space debris in SSO originally from a launch on Mon, 10 May 1999 UTC launched from the Taiyaun Space Center, China (TSC). Fengyun 1C debris stems from the Chinese weather satellite Fengyun-1C, which was intentionally destroyed by a Chinese anti-satellite missile in 2007. This event dramatically increased the amount of space debris, with thousands of trackable fragments posing hazards to satellites and human spaceflight. The Fengyun 1C debris cloud has become a focal point in discussions about space sustainability and the need for international regulations to prevent the creation of new debris.

Loading next visibility...
Identifier
35147, 1999-025DMB
Orbit
SSO
Country
Flag of CNCN / PRC
Related business
Manufacturer
Unknown
Mission
Spacecraft
Bus & Motor
Unknown
Mass
Unknown
Launch date (UTC)
1999-05-10 (26 years ago)
Launch vehicle
Unknown
Launch site
Taiyaun Space Center, China (TSC)
Object type
Payload
Rocket body
Debris
Shape & HBR
Unknown shape, 0.1 m
Radar Cross Section
Small (<0.1 m²)

Expand to show TLE details & history
Last TLE update: 1 day ago

TLE from 1 day ago
0 FENGYUN 1C DEB
1 35147U 99025DMB 25287.12214361  .00016746  00000-0  27091-2 0  9994
2 35147  99.4899 350.4964 0026479  25.6266 334.6242 14.71159033734277
Epoch: 2025-10-14T02:55Z
TLE epoch observation values (Epoch: 2025-10-14T02:55:53.207Z)
Latitude
-0.00004°
Longitude
-76.3904°
Altitude
643.502 km
Speed
7.545 km/s
True Right ascension
23h 21m 59s
True Declination
0° 00' 00"
Sunlit
Object was in full shadow at epoch
Visualization orbit readout
Latitude
Unknown
Longitude
Unknown
Altitude
Unknown
Speed
Unknown
Apparent Right ascension
Unknown
Apparent Declination
Unknown
Sunlit
N/A
Visualization observer readout
Local Sidereal Time
06:01:27
Azimuth
Unknown
Elevation
Unknown
Doppler factor
Unknown
Orbital elements
Apogee altitude
673.123 km
Perigee altitude
635.879 km
Semi-major axis
7,032.638 km
Eccentricity
0.00265
Inclination
99.4899°
RAAN
350.4964°
Arg. of periapsis
25.6266°
True anomaly
334.49378°
Mean anomaly
334.6242°
Eccentric anomaly
334.55903°
Mean motion
3.68015 °/min
Orbital period
97.82 mins
BSTAR
0.0027091
Loading maneuver chart data...
Computing Atmospheric mass density...

Documentation

Showing up to 5 results
|